Starlink 32046

operational
NORAD ID: 60198 Int'l Des: 2024-124 Owner: SPXS Country: US Constellation: starlink
LEOCIRCULAR

关于 Starlink 32046

正在加载描述...

实时位置

正在加载3D地球...

即将过境

高度历史

Altitude vs Time

uPlot chart will show altitude changes over time

两行轨道根数

1 60198U 24124R 25354.12653131 -.00000927 00000-0 -19194-4 0 9996
2 60198 53.1624 332.0976 0001353 95.2929 264.8226 15.30189274 83343
Epoch: Dec 20, 2025 • Age: 11 hours

当前状态

高度 480.0 km
速度 7.63 km/s
星下点 49.14°N, 85.21°E
发射日期 Jul 3, 2024
运行时间 1.4 years
类型 internet

技术详情

分类 Payload
质量 730.00 kg
干质量 700.00 kg
总质量 730.00 kg
长度 0.30 m
直径 4.10 m
跨度 29.00 m
形状 Box + pan
制造商 SPXS
平台类型 Starlink V2M
阶段状态 In Orbit
所有者/国家 SPXS/US

大型星座

Loading constellations...